User: anonymous   Login
Location: Dissen
(37.5842°N, 89.8420°W)
Time: 18:51:55
(UTC+00:00)
Language:

DOVE 4 - Orbit

View from above orbital plane
View from above orbital plane
View from above satellite
View from above satellite

Ground track
Ground track

The orbit data is extracted from the following two-line orbital elements,

1 39430U 13066Q   24340.54836986  .00004304  00000-0  68902-3 0  9996
2 39430  97.7039 204.5152 0137313  67.2510 294.3139 14.66080658587953
Epoch (UTC): 05 December 2024 13:09:39
Eccentricity: 0.0137313
inclination: 97.7039°
perigee height: 577 km
apogee height: 770 km
right ascension of ascending node: 204.5152°
argument of perigee: 67.2510°
revolutions per day: 14.66080658
mean anomaly at epoch: 294.3139°
orbit number at epoch: 58795

The dashed part of the orbit path shows where the satellite is in the earth's shadow,  

DLR